Tallapoosa River Weather Center

Moon Phase Calendar



Online Cameras

 


      

Current Conditions in Roanoke
10/19/2021 11:47:50 PM

53°F
Feels Like 51
Clouds
Humidity
67%
Pressure
30.21"
Wind
2.5 mph (SE)
Dew Point
42°F
UV Index
0/10 (Low)
Visibility
6 mi

Hourly Forecast

Date & Time Tue, Oct 19
11:00 PM
Wed, Oct 20
12:00 AM
Wed, Oct 20
1:00 AM
Wed, Oct 20
2:00 AM
Wed, Oct 20
3:00 AM
Wed, Oct 20
4:00 AM
Wed, Oct 20
5:00 AM
Wed, Oct 20
6:00 AM
Wed, Oct 20
7:00 AM
Wed, Oct 20
8:00 AM
Wed, Oct 20
9:00 AM
Wed, Oct 20
10:00 AM
Wed, Oct 20
11:00 AM
Wed, Oct 20
12:00 PM
Wed, Oct 20
1:00 PM
Wed, Oct 20
2:00 PM
Wed, Oct 20
3:00 PM
Wed, Oct 20
4:00 PM
Wed, Oct 20
5:00 PM
Wed, Oct 20
6:00 PM
Wed, Oct 20
7:00 PM
Wed, Oct 20
8:00 PM
Wed, Oct 20
9:00 PM
Wed, Oct 20
10:00 PM
Wed, Oct 20
11:00 PM
Thu, Oct 21
12:00 AM
Thu, Oct 21
1:00 AM
Thu, Oct 21
2:00 AM
Thu, Oct 21
3:00 AM
Thu, Oct 21
4:00 AM
Thu, Oct 21
5:00 AM
Thu, Oct 21
6:00 AM
Thu, Oct 21
7:00 AM
Thu, Oct 21
8:00 AM
Thu, Oct 21
9:00 AM
Thu, Oct 21
10:00 AM
Thu, Oct 21
11:00 AM
Thu, Oct 21
12:00 PM
Thu, Oct 21
1:00 PM
Thu, Oct 21
2:00 PM
Thu, Oct 21
3:00 PM
Thu, Oct 21
4:00 PM
Thu, Oct 21
5:00 PM
Thu, Oct 21
6:00 PM
Thu, Oct 21
7:00 PM
Thu, Oct 21
8:00 PM
Thu, Oct 21
9:00 PM
Thu, Oct 21
10:00 PM
Condition
Clouds

Clouds

Clouds

Clouds

Clouds

Clouds

Clouds

Clouds

Clouds

Clouds

Clouds

Clouds

Clouds

Clouds

Clouds

Clouds

Clouds

Clouds

Clouds

Clouds

Clouds

Clouds

Clouds

Clouds

Clouds

Clouds

Clouds

Clouds

Clouds

Clouds

Clouds

Clouds

Rain

Rain

Clouds

Clouds

Clouds

Clouds

Clouds

Clouds

Clouds

Clouds

Clouds

Clouds

Clouds

Clouds

Rain

Rain
Temperature 53°F53°F53°F52°F52°F52°F51°F51°F51°F56°F62°F67°F71°F73°F75°F76°F76°F75°F70°F65°F63°F61°F60°F60°F59°F59°F58°F58°F59°F60°F61°F61°F61°F62°F65°F69°F73°F77°F78°F77°F77°F76°F74°F70°F67°F66°F67°F66°F
Feels Like 51°F51°F51°F51°F50°F50°F50°F50°F49°F54°F61°F66°F70°F72°F74°F75°F75°F74°F70°F64°F62°F61°F60°F59°F58°F58°F57°F57°F58°F59°F60°F61°F61°F62°F65°F69°F74°F77°F78°F77°F77°F77°F74°F70°F68°F67°F68°F67°F
Cloudiness 47%49%50%55%50%61%70%72%69%12%22%33%38%50%59%68%48%58%69%75%79%100%100%100%100%97%93%48%60%64%72%78%81%98%99%97%90%81%76%94%78%69%69%74%77%93%96%98%
Visibility 6 mi6 mi6 mi6 mi6 mi6 mi6 mi6 mi6 mi6 mi6 mi6 mi6 mi6 mi6 mi6 mi6 mi6 mi6 mi6 mi6 mi6 mi6 mi6 mi6 mi6 mi6 mi6 mi6 mi6 mi6 mi6 mi6 mi6 mi6 mi6 mi6 mi6 mi6 mi6 mi6 mi6 mi6 mi6 mi6 mi6 mi6 mi6 mi
Precipitation 0%0%0%0%0%0%0%0%0%0%0%0%0%0%0%0%0%0%0%0%0%0%0%0%0%0%0%0%0%0%0%2%25%51%46%38%38%34%34%40%40%48%52%52%48%15%35%78%
Humidity 66%67%68%69%70%71%70%70%70%66%55%49%46%45%42%40%39%41%57%63%67%70%72%73%75%77%79%81%80%78%78%80%83%87%86%81%66%57%56%58%59%62%72%83%90%95%94%94%
Dew Point 42°F42°F43°F43°F42°F42°F42°F42°F42°F45°F46°F48°F49°F50°F50°F50°F49°F50°F54°F52°F51°F51°F51°F51°F51°F51°F52°F52°F52°F53°F54°F55°F56°F58°F60°F62°F61°F60°F61°F61°F61°F62°F64°F64°F64°F64°F65°F65°F
Pressure 30.21"30.21"30.21"30.21"30.21"30.24"30.24"30.24"30.27"30.27"30.3"30.27"30.27"30.24"30.21"30.18"30.15"30.15"30.15"30.15"30.18"30.18"30.18"30.18"30.18"30.18"30.15"30.18"30.15"30.15"30.15"30.15"30.18"30.18"30.18"30.18"30.15"30.12"30.09"30.06"30.06"30.06"30.06"30.09"30.09"30.09"30.09"30.09"
Wind Speed 3.6 mph2.5 mph2.6 mph2.8 mph1.6 mph1.6 mph2.2 mph2.4 mph2.5 mph2.3 mph2.2 mph2.9 mph3.9 mph4.6 mph4.5 mph4.8 mph4.8 mph4.4 mph3.4 mph3.2 mph2.9 mph2.4 mph2.7 mph2.5 mph2.9 mph3 mph2.6 mph2.7 mph3.1 mph2.7 mph2.4 mph2.8 mph2.7 mph3.2 mph3.8 mph6.1 mph8 mph8.5 mph8.6 mph8.2 mph8.3 mph7.7 mph5.4 mph4.2 mph4.3 mph3.8 mph3.6 mph3.5 mph
Wind
Direction
111°
ESE
124°
SE
109°
ESE
113°
ESE
132°
SE
100°
E
80°
E
74°
ENE
87°
E
86°
E
110°
ESE
153°
SSE
168°
SSE
172°
S
179°
S
182°
S
181°
S
185°
S
173°
S
167°
SSE
140°
SE
125°
SE
130°
SE
148°
SSE
154°
SSE
144°
SE
153°
SSE
157°
SSE
168°
SSE
181°
S
189°
S
182°
S
179°
S
176°
S
188°
S
201°
SSW
206°
SSW
210°
SSW
216°
SW
217°
SW
218°
SW
224°
SW
228°
SW
239°
WSW
253°
WSW
249°
WSW
229°
SW
230°
SW

Daily Forecast

Date High Low Precip. Humidity
Today
Oct 19

Clear
74 °F
48 °F
0%
33%
Wednesday
Oct 20

Clouds
76 °F
51 °F
0%
45%
Thursday
Oct 21

Rain
78 °F
58 °F
78%
57%
Friday
Oct 22

Rain
76 °F
59 °F
98%
35%
Saturday
Oct 23

Clear
81 °F
57 °F
2%
50%
Sunday
Oct 24

Clear
82 °F
61 °F
5%
45%
Monday
Oct 25

Clear
83 °F
62 °F
0%
47%
Tuesday
Oct 26

Clouds
82 °F
62 °F
0%
51%
Wednesday
Oct 27

Clouds
82 °F
64 °F
1%
67%
Thursday
Oct 28

Rain
70 °F
54 °F
100%
90%
Friday
Oct 29

Clear
62 °F
47 °F
0%
45%
Saturday
Oct 30

Rain
54 °F
46 °F
36%
75%
Sunday
Oct 31

Rain
59 °F
50 °F
48%
72%
Monday
Nov 1

Clear
67 °F
47 °F
3%
48%
Tuesday
Nov 2

Clouds
64 °F
54 °F
0%
60%
Wednesday
Nov 3

Clouds
69 °F
49 °F
0%
52%

Temperature 8-14 Day Outlook



Precipitation 8-14 Day Outlook




Quick Links
Tallapoosa River News
Tallapoosa River Photos
Tallapoosa River Videos




About Us
Contact Us
Site Map
Search Site
Advertise With Us
   
Tallapoosa.DiscoverRivers.com
THE TALLAPOOSA RIVER WEBSITE

Copyright 2021, Discover Rivers
Privacy    |    Legal